{"data":{"norad_id":59019,"epoch":"2026-05-25T03:30:59.575968Z","epoch_age_seconds":56151,"freshness":"FRESH","line1":"1 59019U 24036X   26145.14652287  .00001786  00000+0  72439-4 0  9992","line2":"2 59019  53.1608  83.3759 0001279  92.7698 267.3450 15.30194942127021","mean_motion":15.30194942,"eccentricity":0.0001279,"inclination_deg":53.1608,"raan_deg":83.3759,"arg_perigee_deg":92.7698,"mean_anomaly_deg":267.345,"bstar":7.2439e-5,"rev_number":12702,"period_min":94.105656768012,"perigee_km":474.35362607595,"apogee_km":476.10671739848,"semimajor_km":6853.3671717372,"source":"CELESTRAK","updated_at":"2026-05-25T13:38:18.821856Z"}}